Location: Vihti�l�
(61.3833°N, 23.0667°E)
Time: 04:20:50
(UTC+00:00)

Meteor 1-31 Rocket - Pass Details

Date: 29 November 2020
Orbit: 520 x 546 km, 97.6° (Epoch: 22 January)

Event Time Altitude Azimuth Distance (km) Brightness Sun altitude
Rises 03:56:42 0° 16° (NNE) 2,708 6.5 -21.1°
Reaches altitude 10° 03:58:50 10° 15° (NNE) 1,808 5.5 -20.8°
Maximum altitude 04:02:44 80° 290° (WNW) 550 2.6 -20.4°
Enters shadow 04:05:15 21° 205° (SSW) 1,236 4.4 -20.1°
